Weather History for Cullman, AL

Change the Weather History Date:

Monday, October 22, 2012

  Actual Average (KHSV) Record (KHSV)
Temperature  
Mean Temperature 64 °F 61 °F  
Max Temperature 78 °F 73 °F 88 °F (1963)
Min Temperature 49 °F 49 °F 27 °F (1952)
Degree Days  
Heating Degree Days 2 6  
Month to date heating degree days 77  
Since 1 July heating degree days 90  
Cooling Degree Days 0 1  
Month to date cooling degree days 61  
Year to date cooling degree days 1931  
Growing Degree Days 14 (Base 50)    
Moisture  
Dew Point 50 °F    
Average Humidity 68    
Maximum Humidity 96    
Minimum Humidity 36    
Precipitation  
Precipitation 0.00 in 0.12 in 2.75 in (1935)
Month to date precipitation 2.47  
Year to date precipitation 42.51  
Snow  
Snow 0.00 in - - ()
Month to date snowfall  
Since 1 July snowfall  
Since 1 September snowfall  
Snow Depth -    
Sea Level Pressure  
Sea Level Pressure 30.18 in    
Wind  
Wind Speed 2 mph (South)    
Max Wind Speed 9 mph    
Max Gust Speed -    
Visibility 10 miles    
Events      
T = Trace of Precipitation, MM = Missing Value Source: NWS Daily Summary

Daily Weather History Graph

Daily Weather History Graph

Search for Another Location

Airport:

Trip Planner

Search our weather history database for the weather conditions in past years. The results will help you decide how hot, cold, wet, or windy it might be!

Date:

Astronomy

Oct. 22, 2012 Rise Set
Actual Time 6:58 AM CDT 6:04 PM CDT
Civil Twilight 6:33 AM CDT 6:29 PM CDT
Nautical Twilight 6:04 AM CDT 6:58 PM CDT
Astronomical Twilight 5:34 AM CDT 7:28 PM CDT
Moon 1:55 PM CDT (10/22) 12:03 AM CDT (10/22)
Length of Visible Light 11h 56m
Length of Day
11h 05m
First Quarter, 56% of the Moon is Illuminated
Oct 22
First Quarter
Oct 29
Full
Nov 6
Last Quarter
Nov 13
New
Nov 20
First Quarter

Hourly Weather History & Observations

Time (CDT) Temp. Dew Point Humidity Pressure Visibility Wind Dir Wind Speed Gust Speed Precip Events Conditions
12:35 AM 51.1 °F 49.6 °F 95% 30.16 in 10.0 mi Calm Calm - N/A   Clear
12:55 AM 50.7 °F 49.3 °F 95% 30.15 in 10.0 mi Calm Calm - N/A   Clear
1:35 AM 50.9 °F 49.5 °F 95% 30.16 in 10.0 mi Calm Calm - N/A   Clear
1:55 AM 51.8 °F 49.5 °F 92% 30.16 in 10.0 mi Calm Calm - N/A   Clear
2:55 AM 51.1 °F 48.6 °F 91% 30.16 in 10.0 mi Calm Calm - N/A   Clear
3:15 AM 51.4 °F 48.4 °F 89% 30.16 in 10.0 mi Calm Calm - N/A   Clear
3:55 AM 49.6 °F 47.8 °F 94% 30.16 in 10.0 mi Calm Calm - N/A   Clear
4:55 AM 49.1 °F 48.0 °F 96% 30.17 in 10.0 mi Calm Calm - N/A   Clear
5:15 AM 49.1 °F 47.7 °F 95% 30.18 in 10.0 mi Calm Calm - N/A   Clear
5:35 AM 49.6 °F 47.8 °F 94% 30.18 in 10.0 mi Calm Calm - N/A   Mostly Cloudy
6:15 AM 51.1 °F 48.2 °F 90% 30.19 in 10.0 mi Calm Calm - N/A   Scattered Clouds
6:35 AM 51.6 °F 48.4 °F 89% 30.20 in 10.0 mi Calm Calm - N/A   Mostly Cloudy
7:15 AM 52.7 °F 49.1 °F 88% 30.20 in 10.0 mi Calm Calm - N/A   Mostly Cloudy
7:35 AM 53.4 °F 49.1 °F 85% 30.21 in 10.0 mi Calm Calm - N/A   Scattered Clouds
9:35 AM 64.9 °F 50.7 °F 60% 30.23 in 10.0 mi South 5.8 mph - N/A   Scattered Clouds
9:55 AM 67.5 °F 50.5 °F 55% 30.24 in 10.0 mi SSE 6.9 mph - N/A   Clear
10:15 AM 69.1 °F 50.9 °F 52% 30.23 in 10.0 mi South 6.9 mph - N/A   Clear
10:35 AM 70.5 °F 50.9 °F 50% 30.23 in 10.0 mi SSW 9.2 mph - N/A   Clear
10:55 AM 71.2 °F 49.3 °F 46% 30.23 in 10.0 mi SSW 9.2 mph - N/A   Clear
11:35 AM 72.9 °F 49.6 °F 44% 30.23 in 10.0 mi South 6.9 mph - N/A   Clear
12:15 PM 74.5 °F 48.7 °F 40% 30.22 in 10.0 mi SSW 6.9 mph - N/A   Clear
12:35 PM 75.2 °F 48.7 °F 39% 30.21 in 10.0 mi South 6.9 mph - N/A   Clear
12:55 PM 75.6 °F 49.5 °F 40% 30.19 in 10.0 mi South 4.6 mph - N/A   Clear
1:15 PM 76.3 °F 50.7 °F 41% 30.18 in 10.0 mi South 8.1 mph - N/A   Clear
1:35 PM 76.8 °F 50.9 °F 40% 30.17 in 10.0 mi South 5.8 mph - N/A   Clear
1:55 PM 77.4 °F 50.9 °F 39% 30.16 in 10.0 mi South 4.6 mph - N/A   Clear
2:15 PM 77.5 °F 50.4 °F 38% 30.15 in 10.0 mi South 4.6 mph - N/A   Clear
2:35 PM 78.1 °F 50.2 °F 38% 30.14 in 10.0 mi SSE 4.6 mph - N/A   Clear
3:15 PM 78.6 °F 49.8 °F 36% 30.14 in 10.0 mi South 5.8 mph - N/A   Clear
3:35 PM 78.4 °F 49.5 °F 36% 30.14 in 10.0 mi South 4.6 mph - N/A   Clear
3:55 PM 78.3 °F 50.0 °F 37% 30.14 in 10.0 mi South 6.9 mph - N/A   Clear
4:15 PM 78.1 °F 50.5 °F 38% 30.14 in 10.0 mi SSW 5.8 mph - N/A   Clear
4:35 PM 77.9 °F 49.8 °F 37% 30.14 in 10.0 mi South 4.6 mph - N/A   Clear
5:15 PM 76.6 °F 50.2 °F 39% 30.14 in 10.0 mi Calm Calm - N/A   Clear
5:35 PM 74.5 °F 53.4 °F 48% 30.15 in 10.0 mi Calm Calm - N/A   Clear
6:15 PM 64.8 °F 54.9 °F 70% 30.16 in 10.0 mi Calm Calm - N/A   Clear
6:35 PM 61.9 °F 54.1 °F 76% 30.16 in 10.0 mi Calm Calm - N/A   Clear
6:55 PM 61.0 °F 54.3 °F 79% 30.17 in 10.0 mi Calm Calm - N/A   Clear
7:35 PM 57.9 °F 54.1 °F 87% 30.17 in 10.0 mi Calm Calm - N/A   Clear
8:55 PM 55.0 °F 52.5 °F 91% 30.18 in 10.0 mi Calm Calm - N/A   Clear
9:15 PM 55.0 °F 52.5 °F 91% 30.18 in 10.0 mi Calm Calm - N/A   Clear
9:55 PM 53.8 °F 52.0 °F 94% 30.17 in 10.0 mi Calm Calm - N/A   Clear
10:35 PM 52.5 °F 51.1 °F 95% 30.17 in 10.0 mi Calm Calm - N/A   Clear
11:15 PM 52.3 °F 50.9 °F 95% 30.16 in 10.0 mi Calm Calm - N/A   Clear
11:35 PM 52.3 °F 50.7 °F 94% 30.16 in 10.0 mi Calm Calm - N/A   Clear
11:55 PM 53.2 °F 50.0 °F 89% 30.15 in 10.0 mi Calm Calm - N/A   Clear